RYR6752 LBSF-LICA

Flight info

Callsign RYR6752
Flight time 1h 13m
Altitude 36000
Route NAPET3T NAPET T214 DOBAR DCT PAPIZ DCT ABADI DCT ALIXI DCT CRN L869 CDC CDC2J
Aircraft B738/M-SDE2E3FGHIRWXY/LB1

Departure

Time 2026-04-26 15:28
Airport Sofia Airport (LBSF)

Arrival

Time 2026-04-26 16:41
Airport Lamezia Terme Sant'Eufemia International Airport (LICA)
Time Latitude Longitude Altitude Speed Heading
2026-04-26 14:55 42.69011 23.41002 1749 ft 0 kts 162°
2026-04-26 15:21 42.68999 23.41007 1743 ft 6 kts 161°
2026-04-26 15:21 42.68960 23.41068 1747 ft 12 kts 91°
2026-04-26 15:22 42.68997 23.41190 1746 ft 19 kts 49°
2026-04-26 15:22 42.69121 23.41190 1749 ft 19 kts 342°
2026-04-26 15:22 42.69246 23.41152 1747 ft 18 kts
2026-04-26 15:22 42.69368 23.41188 1743 ft 18 kts 12°
2026-04-26 15:23 42.69466 23.41227 1742 ft 13 kts 36°
2026-04-26 15:23 42.69478 23.41407 1744 ft 27 kts 95°
2026-04-26 15:23 42.69464 23.41645 1744 ft 24 kts 94°
2026-04-26 15:23 42.69451 23.41866 1748 ft 23 kts 94°
2026-04-26 15:24 42.69438 23.42077 1750 ft 22 kts 95°
2026-04-26 15:24 42.69430 23.42215 1750 ft 22 kts 95°
2026-04-26 15:24 42.69418 23.42417 1750 ft 21 kts 95°
2026-04-26 15:24 42.69400 23.42715 1751 ft 24 kts 95°
2026-04-26 15:25 42.69386 23.42942 1751 ft 23 kts 95°
2026-04-26 15:25 42.69378 23.43088 1744 ft 23 kts 95°
2026-04-26 15:25 42.69361 23.43365 1751 ft 22 kts 95°
2026-04-26 15:25 42.69349 23.43568 1742 ft 21 kts 95°
2026-04-26 15:26 42.69341 23.43699 1752 ft 21 kts 95°
2026-04-26 15:26 42.69332 23.43868 1746 ft 13 kts 87°
2026-04-26 15:26 42.69394 23.43945 1751 ft 15 kts
2026-04-26 15:26 42.69487 23.43951 1743 ft 13 kts 349°
2026-04-26 15:27 42.69520 23.43851 1747 ft 11 kts 274°
2026-04-26 15:27 42.69528 23.43736 1752 ft 21 kts 275°
2026-04-26 15:27 42.69562 23.43152 1752 ft 102 kts 274°
2026-04-26 15:27 42.69637 23.41875 1821 ft 162 kts 275°
2026-04-26 15:28 42.69717 23.40319 2739 ft 164 kts 276°
2026-04-26 15:28 42.69865 23.38744 3680 ft 170 kts 290°
2026-04-26 15:28 42.70482 23.37289 4268 ft 189 kts 310°
2026-04-26 15:28 42.71362 23.35847 4579 ft 213 kts 310°
2026-04-26 15:29 42.72330 23.34218 5078 ft 226 kts 309°
2026-04-26 15:29 42.73332 23.32515 5759 ft 236 kts 309°
2026-04-26 15:29 42.75481 23.28845 6886 ft 252 kts 309°
2026-04-26 15:30 42.76768 23.24431 7001 ft 261 kts 276°
2026-04-26 15:30 42.76815 23.21969 7001 ft 259 kts 273°
2026-04-26 15:30 42.76821 23.19519 7005 ft 260 kts 274°
2026-04-26 15:31 42.76837 23.17042 7007 ft 264 kts 274°
2026-04-26 15:31 42.76433 23.12027 7609 ft 280 kts 246°
2026-04-26 15:31 42.75206 23.09956 8654 ft 287 kts 221°
2026-04-26 15:32 42.72017 23.08436 10164 ft 302 kts 192°
2026-04-26 15:32 42.69130 23.07895 10784 ft 330 kts 189°
2026-04-26 15:32 42.66778 23.07498 11189 ft 349 kts 189°
2026-04-26 15:33 42.64335 23.07084 11882 ft 357 kts 189°
2026-04-26 15:33 42.61849 23.06652 12664 ft 363 kts 190°
2026-04-26 15:33 42.59328 23.06203 13509 ft 368 kts 191°
2026-04-26 15:33 42.56782 23.05738 14303 ft 371 kts 191°
2026-04-26 15:34 42.54211 23.05265 15059 ft 374 kts 191°
2026-04-26 15:34 42.51616 23.04783 15800 ft 379 kts 191°
2026-04-26 15:34 42.48991 23.04294 16531 ft 383 kts 191°
2026-04-26 15:34 42.46338 23.03800 17285 ft 386 kts 190°
2026-04-26 15:35 42.43662 23.03303 18013 ft 390 kts 191°
2026-04-26 15:35 42.40957 23.02800 18678 ft 394 kts 190°
2026-04-26 15:35 42.38262 23.02300 19289 ft 398 kts 190°
2026-04-26 15:35 42.35467 23.01783 19911 ft 402 kts 190°
2026-04-26 15:36 42.32681 23.01264 20501 ft 406 kts 191°
2026-04-26 15:36 42.29991 23.00152 21059 ft 406 kts 210°
2026-04-26 15:36 42.27740 22.97976 21636 ft 404 kts 227°
2026-04-26 15:36 42.26027 22.94984 22216 ft 403 kts 239°
2026-04-26 15:37 42.24507 22.91779 22738 ft 408 kts 240°
2026-04-26 15:37 42.22995 22.88507 23234 ft 414 kts 240°
2026-04-26 15:37 42.21462 22.85200 23730 ft 418 kts 240°
2026-04-26 15:37 42.19905 22.81884 24273 ft 418 kts 240°
2026-04-26 15:38 42.18336 22.78575 24827 ft 419 kts 240°
2026-04-26 15:38 42.16754 22.75266 25292 ft 422 kts 239°
2026-04-26 15:38 42.15155 22.71934 25766 ft 424 kts 239°
2026-04-26 15:38 42.13570 22.68637 26240 ft 426 kts 239°
2026-04-26 15:39 42.11957 22.65283 26721 ft 427 kts 239°
2026-04-26 15:39 42.10336 22.61918 27164 ft 430 kts 240°
2026-04-26 15:39 42.08705 22.58534 27578 ft 432 kts 240°
2026-04-26 15:39 42.07619 22.56279 27859 ft 434 kts 240°
2026-04-26 15:40 42.05417 22.51714 28428 ft 436 kts 240°
2026-04-26 15:40 42.03760 22.48284 28852 ft 438 kts 240°
2026-04-26 15:40 42.02096 22.44840 29242 ft 440 kts 240°
2026-04-26 15:40 42.00427 22.41390 29692 ft 440 kts 240°
2026-04-26 15:41 41.98763 22.37956 30259 ft 436 kts 240°
2026-04-26 15:41 41.97284 22.34429 30722 ft 431 kts 248°
2026-04-26 15:41 41.96044 22.30780 31196 ft 428 kts 249°
2026-04-26 15:41 41.94837 22.27130 31596 ft 427 kts 249°
2026-04-26 15:42 41.93636 22.23481 32025 ft 426 kts 249°
2026-04-26 15:42 41.92438 22.19855 32475 ft 424 kts 249°
2026-04-26 15:42 41.91235 22.16244 32903 ft 423 kts 249°
2026-04-26 15:42 41.90030 22.12647 33304 ft 422 kts 249°
2026-04-26 15:43 41.88823 22.09064 33713 ft 421 kts 249°
2026-04-26 15:43 41.87617 22.05496 34103 ft 420 kts 249°
2026-04-26 15:43 41.85210 21.98399 34835 ft 416 kts 249°
2026-04-26 15:44 41.84013 21.94875 35202 ft 414 kts 249°
2026-04-26 15:44 41.81631 21.87880 35878 ft 411 kts 248°
2026-04-26 15:44 41.80457 21.84437 36007 ft 414 kts 248°
2026-04-26 15:45 41.76841 21.73859 36008 ft 411 kts 248°
2026-04-26 15:46 41.73295 21.63527 36015 ft 408 kts 248°
2026-04-26 15:46 41.71308 21.57753 36023 ft 407 kts 248°
2026-04-26 15:47 41.67362 21.46325 36027 ft 407 kts 248°
2026-04-26 15:48 41.64983 21.39456 36010 ft 407 kts 248°
2026-04-26 15:48 41.62603 21.32598 36030 ft 408 kts 248°
2026-04-26 15:49 41.60204 21.25707 36028 ft 410 kts 248°
2026-04-26 15:49 41.57809 21.18842 36029 ft 411 kts 248°
2026-04-26 15:50 41.55384 21.11909 36029 ft 413 kts 248°
2026-04-26 15:50 41.52947 21.04960 36040 ft 414 kts 247°
2026-04-26 15:51 41.50502 20.98005 36032 ft 414 kts 247°
2026-04-26 15:51 41.48049 20.91045 36024 ft 415 kts 247°
2026-04-26 15:52 41.45593 20.84092 36044 ft 414 kts 247°
2026-04-26 15:52 41.43135 20.77151 36035 ft 414 kts 247°
2026-04-26 15:53 41.40696 20.70278 36025 ft 413 kts 247°
2026-04-26 15:53 41.38239 20.63372 36041 ft 412 kts 247°
2026-04-26 15:54 41.35784 20.56485 36037 ft 412 kts 247°
2026-04-26 15:54 41.33330 20.49602 36049 ft 411 kts 248°
2026-04-26 15:55 41.31250 20.42540 36045 ft 410 kts 252°
2026-04-26 15:55 41.29314 20.35418 36042 ft 410 kts 252°
2026-04-26 15:56 41.27363 20.28301 36053 ft 410 kts 251°
2026-04-26 15:56 41.25385 20.21191 36053 ft 410 kts 251°
2026-04-26 15:57 41.23392 20.14087 36052 ft 411 kts 251°
2026-04-26 15:57 41.21390 20.06981 36055 ft 410 kts 251°
2026-04-26 15:58 41.19385 19.99885 36069 ft 411 kts 251°
2026-04-26 15:58 41.17376 19.92789 36071 ft 411 kts 251°
2026-04-26 15:59 41.15360 19.85689 36068 ft 411 kts 251°
2026-04-26 15:59 41.13335 19.78578 36069 ft 412 kts 251°
2026-04-26 16:00 41.11302 19.71458 36059 ft 413 kts 251°
2026-04-26 16:00 41.09277 19.64386 36066 ft 413 kts 251°
2026-04-26 16:01 41.07231 19.57261 36059 ft 414 kts 251°
2026-04-26 16:01 41.05181 19.50140 36068 ft 414 kts 251°
2026-04-26 16:02 41.03126 19.43021 36066 ft 414 kts 251°
2026-04-26 16:02 41.01082 19.35960 36070 ft 413 kts 250°
2026-04-26 16:03 40.99020 19.28856 36069 ft 413 kts 250°
2026-04-26 16:03 40.96955 19.21762 36077 ft 413 kts 250°
2026-04-26 16:04 40.94886 19.14672 36081 ft 413 kts 250°
2026-04-26 16:04 40.92811 19.07578 36083 ft 414 kts 250°
2026-04-26 16:05 40.90731 19.00487 36083 ft 414 kts 250°
2026-04-26 16:05 40.88499 18.93474 36072 ft 415 kts 243°
2026-04-26 16:06 40.85606 18.86924 36076 ft 416 kts 241°
2026-04-26 16:06 40.82664 18.80343 36080 ft 416 kts 241°
2026-04-26 16:07 40.79749 18.73736 36077 ft 417 kts 242°
2026-04-26 16:07 40.76803 18.67145 36072 ft 418 kts 237°
2026-04-26 16:08 40.72848 18.61506 36072 ft 423 kts 219°
2026-04-26 16:08 40.68058 18.56984 36073 ft 424 kts 217°
2026-04-26 16:09 40.63216 18.52540 36078 ft 425 kts 217°
2026-04-26 16:09 40.58383 18.48064 36076 ft 425 kts 217°
2026-04-26 16:10 40.53560 18.43566 36073 ft 425 kts 217°
2026-04-26 16:10 40.48736 18.39060 36073 ft 426 kts 217°
2026-04-26 16:11 40.43904 18.34555 36075 ft 426 kts 217°
2026-04-26 16:11 40.41484 18.32301 35806 ft 429 kts 217°
2026-04-26 16:11 40.39058 18.30044 35429 ft 425 kts 217°
2026-04-26 16:11 40.36658 18.27815 35009 ft 421 kts 217°
2026-04-26 16:12 40.34277 18.25604 34612 ft 417 kts 217°
2026-04-26 16:12 40.31916 18.23415 34211 ft 414 kts 217°
2026-04-26 16:12 40.27246 18.19089 33345 ft 408 kts 217°
2026-04-26 16:13 40.24938 18.16953 32931 ft 405 kts 217°
2026-04-26 16:13 40.22651 18.14839 32530 ft 401 kts 217°
2026-04-26 16:13 40.20406 18.12766 32144 ft 398 kts 217°
2026-04-26 16:13 40.18153 18.10686 31758 ft 395 kts 217°
2026-04-26 16:14 40.15912 18.08620 31381 ft 392 kts 217°
2026-04-26 16:14 40.13694 18.06576 30998 ft 389 kts 217°
2026-04-26 16:14 40.09297 18.02529 30256 ft 384 kts 217°
2026-04-26 16:15 40.07119 18.00526 29841 ft 382 kts 217°
2026-04-26 16:15 40.04952 17.98536 29419 ft 379 kts 217°
2026-04-26 16:15 40.02834 17.96593 29043 ft 375 kts 217°
2026-04-26 16:16 39.98600 17.92712 28269 ft 369 kts 217°
2026-04-26 16:16 39.96509 17.90797 27874 ft 366 kts 217°
2026-04-26 16:16 39.94431 17.88896 27494 ft 363 kts 217°
2026-04-26 16:16 39.92372 17.87013 27119 ft 361 kts 217°
2026-04-26 16:17 39.90324 17.85142 26753 ft 358 kts 217°
2026-04-26 16:17 39.88289 17.83284 26382 ft 356 kts 217°
2026-04-26 16:17 39.86265 17.81438 26011 ft 354 kts 217°
2026-04-26 16:17 39.84255 17.79605 25650 ft 352 kts 217°
2026-04-26 16:18 39.82254 17.77783 25284 ft 350 kts 217°
2026-04-26 16:18 39.78276 17.74162 24560 ft 347 kts 217°
2026-04-26 16:19 39.74327 17.70574 23827 ft 346 kts 217°
2026-04-26 16:19 39.72357 17.68786 23440 ft 345 kts 217°
2026-04-26 16:19 39.69102 17.65834 22775 ft 342 kts 216°
2026-04-26 16:20 39.66503 17.63480 22279 ft 339 kts 216°
2026-04-26 16:20 39.62661 17.60003 21564 ft 335 kts 216°
2026-04-26 16:20 39.60757 17.58282 21219 ft 333 kts 216°
2026-04-26 16:21 39.58863 17.56571 20869 ft 331 kts 216°
2026-04-26 16:21 39.56979 17.54870 20517 ft 329 kts 216°
2026-04-26 16:21 39.55103 17.53177 20179 ft 328 kts 216°
2026-04-26 16:21 39.53260 17.51516 19841 ft 326 kts 216°
2026-04-26 16:22 39.51400 17.49839 19500 ft 325 kts 216°
2026-04-26 16:22 39.49522 17.48147 19154 ft 324 kts 216°
2026-04-26 16:22 39.47696 17.46505 18820 ft 323 kts 216°
2026-04-26 16:22 39.45849 17.44844 18480 ft 323 kts 216°
2026-04-26 16:23 39.43983 17.43229 18068 ft 324 kts 213°
2026-04-26 16:23 39.42072 17.41696 17701 ft 322 kts 212°
2026-04-26 16:23 39.40160 17.40197 17356 ft 321 kts 212°
2026-04-26 16:23 39.38232 17.38691 17020 ft 319 kts 212°
2026-04-26 16:24 39.36366 17.37229 16690 ft 317 kts 212°
2026-04-26 16:24 39.34490 17.35755 16356 ft 315 kts 212°
2026-04-26 16:24 39.32623 17.34284 16037 ft 313 kts 212°
2026-04-26 16:24 39.30769 17.32821 15717 ft 312 kts 212°
2026-04-26 16:25 39.28924 17.31365 15392 ft 310 kts 212°
2026-04-26 16:25 39.27085 17.29913 15066 ft 309 kts 212°
2026-04-26 16:25 39.25253 17.28467 14739 ft 308 kts 212°
2026-04-26 16:25 39.23427 17.27026 14418 ft 307 kts 212°
2026-04-26 16:26 39.22222 17.26075 14211 ft 307 kts 212°
2026-04-26 16:26 39.20403 17.24641 13871 ft 306 kts 212°
2026-04-26 16:26 39.18588 17.23211 13505 ft 305 kts 212°
2026-04-26 16:26 39.16779 17.21787 13154 ft 304 kts 212°
2026-04-26 16:27 39.14394 17.19909 12702 ft 302 kts 212°
2026-04-26 16:27 39.12602 17.18501 12364 ft 301 kts 212°
2026-04-26 16:27 39.11395 17.17552 12148 ft 300 kts 212°
2026-04-26 16:27 39.09040 17.15702 11714 ft 299 kts 212°
2026-04-26 16:28 39.07843 17.14761 11495 ft 298 kts 212°
2026-04-26 16:28 39.06098 17.13391 11175 ft 297 kts 212°
2026-04-26 16:28 39.04333 17.12007 10861 ft 297 kts 212°
2026-04-26 16:28 39.02569 17.10625 10540 ft 297 kts 212°
2026-04-26 16:29 39.00813 17.09245 10299 ft 293 kts 214°
2026-04-26 16:29 38.99384 17.07465 10151 ft 283 kts 239°
2026-04-26 16:29 38.98509 17.05233 9903 ft 279 kts 248°
2026-04-26 16:29 38.97750 17.02948 9594 ft 278 kts 249°
2026-04-26 16:30 38.97007 17.00659 9299 ft 277 kts 249°
2026-04-26 16:30 38.96266 16.98379 9012 ft 276 kts 249°
2026-04-26 16:30 38.95523 16.96110 8711 ft 275 kts 249°
2026-04-26 16:30 38.94779 16.93852 8418 ft 274 kts 249°
2026-04-26 16:31 38.94034 16.91605 8136 ft 273 kts 249°
2026-04-26 16:31 38.93290 16.89366 7854 ft 272 kts 249°
2026-04-26 16:31 38.92545 16.87130 7570 ft 272 kts 248°
2026-04-26 16:31 38.91799 16.84899 7301 ft 272 kts 248°
2026-04-26 16:32 38.91053 16.82672 6997 ft 272 kts 249°
2026-04-26 16:32 38.90308 16.80445 6717 ft 271 kts 249°
2026-04-26 16:32 38.89563 16.78224 6362 ft 273 kts 248°
2026-04-26 16:32 38.88809 16.75975 5998 ft 274 kts 248°
2026-04-26 16:33 38.88055 16.73730 5716 ft 274 kts 248°
2026-04-26 16:33 38.87310 16.71511 5414 ft 274 kts 248°
2026-04-26 16:33 38.86548 16.69244 5118 ft 272 kts 248°
2026-04-26 16:33 38.85799 16.67023 4925 ft 269 kts 248°
2026-04-26 16:34 38.85068 16.64856 4789 ft 261 kts 249°
2026-04-26 16:34 38.84746 16.62636 4656 ft 251 kts 276°
2026-04-26 16:34 38.85069 16.60495 4573 ft 241 kts 285°
2026-04-26 16:34 38.85508 16.58488 4456 ft 232 kts 287°
2026-04-26 16:35 38.85947 16.56522 4333 ft 227 kts 286°
2026-04-26 16:35 38.86371 16.54583 4089 ft 223 kts 285°
2026-04-26 16:35 38.86775 16.52695 3879 ft 217 kts 285°
2026-04-26 16:35 38.87170 16.50828 3654 ft 215 kts 285°
2026-04-26 16:36 38.87554 16.49009 3423 ft 205 kts 284°
2026-04-26 16:36 38.87871 16.47300 3300 ft 187 kts 280°
2026-04-26 16:36 38.88084 16.45705 3138 ft 178 kts 278°
2026-04-26 16:36 38.88273 16.44184 2920 ft 167 kts 278°
2026-04-26 16:37 38.88422 16.42721 2689 ft 163 kts 278°
2026-04-26 16:37 38.88591 16.41300 2480 ft 156 kts 277°
2026-04-26 16:37 38.88744 16.39934 2207 ft 150 kts 277°
2026-04-26 16:37 38.88891 16.38642 1976 ft 143 kts 276°
2026-04-26 16:38 38.89031 16.37407 1777 ft 141 kts 276°
2026-04-26 16:38 38.89173 16.36163 1593 ft 141 kts 277°
2026-04-26 16:38 38.89316 16.34908 1399 ft 142 kts 277°
2026-04-26 16:38 38.89459 16.33667 1219 ft 141 kts 277°
2026-04-26 16:39 38.89602 16.32416 1038 ft 143 kts 277°
2026-04-26 16:39 38.89745 16.31164 847 ft 142 kts 276°
2026-04-26 16:39 38.89885 16.29906 679 ft 144 kts 278°
2026-04-26 16:39 38.90028 16.28645 483 ft 142 kts 277°
2026-04-26 16:40 38.90169 16.27418 325 ft 138 kts 276°
2026-04-26 16:40 38.90308 16.26193 123 ft 138 kts 277°
2026-04-26 16:40 38.90449 16.25012 35 ft 120 kts 280°
2026-04-26 16:40 38.90540 16.24235 29 ft 59 kts 278°
2026-04-26 16:41 38.90583 16.23858 29 ft 34 kts 279°
2026-04-26 16:41 38.90670 16.23593 33 ft 22 kts 305°
2026-04-26 16:41 38.90746 16.23487 32 ft 16 kts 335°
2026-04-26 16:41 38.90833 16.23538 31 ft 15 kts 71°
2026-04-26 16:42 38.90828 16.23673 31 ft 15 kts 98°
2026-04-26 16:42 38.90850 16.23788 31 ft 14 kts 33°
2026-04-26 16:42 38.90875 16.23900 31 ft 14 kts 96°
2026-04-26 16:42 38.90872 16.23930 31 ft 1 kts 96°
2026-04-26 16:43 38.90871 16.23941 31 ft 1 kts 96°
2026-04-26 16:43 38.90870 16.23951 31 ft 1 kts 96°
2026-04-26 16:43 38.90870 16.23961 31 ft 1 kts 92°
2026-04-26 16:43 38.90879 16.24000 31 ft 7 kts 52°
2026-04-26 16:44 38.90911 16.24009 31 ft 4 kts
2026-04-26 16:44 38.90939 16.24015 31 ft 4 kts
2026-04-26 16:44 38.90952 16.24017 31 ft 0 kts